Flag for China Weather past 2 weeks in Langfang, Hebei, China

57 °F


Feels Like: 57 °F
Forecast: 56 / 77 °F
Wind: 1 mph from East

Location: Beijing Airport

Current Time: Oct 13, 2015 at 10:20:50 PM

Latest Report: Oct 13, 2015 at 9:30 PM

Visibility: 10 mi

Pressure: 30.09 "Hg

Humidity: 72%

Dew point: 48 °F

Location of LangfangLocation

Historic Weather in Langfang — Graph


Langfang temperature yesterday

Maximum temperature yesterday: 77 °F (at 1:30 PM)
Minimum temperature yesterday: 43 °F (at 5:00 AM)
Average temperature yesterday: 62 °F

Past Weeks' High & Low Weather Summary

High82 °F (Oct 13, 2:30 PM)100% (Sep 28, 11:00 PM)30.45 "Hg (Sep 28, 11:00 PM)
Low41 °F (Oct 9, 5:00 AM)15% (Oct 7, 11:30 PM)29.77 "Hg (Oct 2, 2:00 PM)
Average62 °F59%30.06 "Hg
* Reported Sep 28 9:00 PM — Oct 13 9:00 PM, Langfang, Weather by CustomWeather, © 2015

Note: Actual official high and low records may vary slightly from our data, if they occured in-between our weather recording intervals... More about our weather records


Langfang weather history for previous 24 hours

Time TempWeatherWind HumidityBarometerVisibility
9:00 PM
Tue, Oct 13
55 °FClear.3 mph77%30.09 "Hg10 mi
8:30 PM55 °FClear.1 mph77%30.07 "Hg10 mi
8:00 PM57 °FPassing clouds.3 mph67%30.07 "HgN/A
7:30 PM57 °FClear.3 mph67%30.07 "Hg10 mi
7:00 PM59 °FPassing clouds.3 mph63%30.07 "HgN/A
6:30 PM64 °FClear.1 mph46%30.07 "Hg10 mi
6:00 PM75 °FPassing clouds.6 mph25%30.04 "HgN/A
5:30 PM72 °FPassing clouds.3 mph29%30.04 "HgN/A
5:00 PM73 °FPassing clouds.3 mph31%30.04 "HgN/A
4:30 PM77 °FSunny.1 mph30%30.04 "Hg10 mi
4:00 PM81 °FSunny.1 mph20%30.07 "Hg10 mi
3:30 PM81 °FSunny.3 mph17%30.07 "Hg10 mi
3:00 PM81 °FSunny.3 mph18%30.07 "Hg10 mi
2:30 PM82 °FSunny.1 mph16%30.07 "Hg10 mi
2:00 PM81 °FSunny.1 mph18%30.09 "Hg10 mi
1:30 PM81 °FSunny.1 mph18%30.09 "Hg10 mi
1:00 PM81 °FSunny.1 mph18%30.12 "Hg10 mi
12:30 PM79 °FSunny.1 mph20%30.12 "Hg10 mi
12:00 PM77 °FPassing clouds.3 mph21%30.15 "HgN/A
11:30 AM77 °FPassing clouds.3 mph22%30.15 "HgN/A
11:00 AM75 °FPassing clouds.3 mph24%30.15 "HgN/A
10:30 AM73 °FPassing clouds.3 mph27%30.18 "HgN/A
10:00 AM72 °FPassing clouds.6 mph29%30.18 "HgN/A
9:30 AM70 °FSunny.8 mph33%30.18 "Hg10 mi
9:00 AM66 °FPassing clouds.6 mph40%30.18 "HgN/A
8:30 AM63 °FSunny.6 mph45%30.18 "Hg10 mi
8:00 AM57 °FPassing clouds.6 mph55%30.18 "HgN/A
7:30 AM54 °FSunny.6 mph67%30.18 "Hg10 mi
7:00 AM50 °FSunny.6 mph71%30.15 "Hg10 mi
6:30 AM45 °FSunny.6 mph81%30.15 "Hg10 mi
6:00 AM45 °FClear.6 mph81%30.15 "Hg10 mi
5:30 AM45 °FClear.6 mph81%30.15 "Hg10 mi
5:00 AM46 °FPassing clouds.3 mph82%30.15 "HgN/A
4:30 AM45 °FClear.6 mph81%30.15 "Hg10 mi
4:00 AM48 °FClear.3 mph71%30.15 "Hg10 mi
3:30 AM46 °FClear.3 mph82%30.12 "Hg10 mi
3:00 AM46 °FClear.6 mph82%30.12 "Hg10 mi
2:30 AM48 °FClear.3 mph82%30.15 "Hg10 mi
2:00 AM46 °FPassing clouds.3 mph82%30.15 "HgN/A
1:30 AM50 °FClear.1 mph76%30.15 "Hg10 mi
1:00 AM48 °FClear.3 mph76%30.12 "Hg10 mi
12:30 AM48 °FClear.3 mph82%30.12 "Hg10 mi
12:00 AM48 °FClear.1 mph82%30.12 "Hg10 mi
11:30 PM
Mon, Oct 12
50 °FClear.1 mph76%30.12 "Hg10 mi
11:00 PM50 °FClear.No wind76%30.12 "Hg10 mi
10:30 PM50 °FClear.1 mph71%30.12 "Hg10 mi
10:00 PM54 °FClear.No wind67%30.12 "Hg10 mi
Weather by CustomWeather, © 2015

See weather overviewHow to use our weather pages